[[{"header":{"parameterUnit":"m.s-1","parameterCategory":1,"la1":30.2991,"la2":30.254,"lo1":-89.0895,"lo2":-89.0444,"dy":0.0017,"dx":0.0017,"nx":28,"ny":28,"refTime":"2024-12-01T09:00:00:Z","depth":0,"parameterNumber":2,"parameterNumberName":"U-component_of_WINDS"},"data":[0,0,0,0,0,0,0,0,0,0,0,0,0,0,0,0,0,0,0,0,0,0,0,0,0,0,0,0,0,0,0,0,0,0,0,0,0,0,0,0,0,0,0,0,0,0,0,0,0,0,0,0,0,0,0,0,0,0,-1.686,-1.686,0,-1.6892,-1.6892,-1.6892,-1.6815,-1.6813,-1.681,-1.6808,-1.6842,-1.6845,-1.6848,0,0,0,0,0,0,0,0,0,0,0,0,0,-1.6734,-1.6736,-1.686,-1.686,-1.6861,-1.6892,-1.6892,-1.6892,-1.6816,-1.6813,-1.681,-1.6807,-1.6841,-1.6845,-1.6849,0,0,0,0,0,0,0,0,0,0,0,0,0,-1.6779,-1.6737,-1.686,-1.6826,-1.6823,-1.6891,-1.6892,-1.6893,-1.6816,-1.6813,-1.6809,-1.6806,-1.684,-1.6845,-1.6849,-1.6952,0,0,-1.6864,-1.6866,0,0,0,0,0,0,0,0,-1.6777,-1.6784,-1.6831,-1.6828,-1.6826,-1.6846,-1.686,-1.6913,-1.6817,-1.6819,-1.6808,-1.6804,-1.6846,-1.685,-1.6865,-1.6954,-1.6955,-1.6864,-1.6867,-1.6869,-1.6871,0,0,0,0,0,0,0,-1.6774,-1.6782,-1.6872,-1.6831,-1.6828,-1.681,-1.6812,-1.687,-1.6853,-1.6819,-1.6813,-1.6818,-1.6844,-1.686,-1.6865,-1.6956,-1.6864,-1.6868,-1.6871,-1.6873,-1.7131,-1.7135,0,0,0,0,0,0,-1.6775,-1.678,-1.6871,-1.6873,-1.6792,-1.6815,-1.6818,-1.6843,-1.6852,-1.685,-1.6821,-1.6814,-1.6854,-1.6859,-1.6866,-1.6988,-1.6869,-1.6874,-1.6876,-1.7127,-1.7132,-1.7136,0,0,0,0,0,0,-1.6772,-1.6784,-1.687,-1.6825,-1.6835,-1.6821,-1.685,-1.6846,-1.6861,-1.6854,-1.6851,-1.684,-1.6851,-1.6859,-1.6931,-1.6988,-1.6876,-1.688,-1.7123,-1.7129,-1.7134,-1.7232,0,0,0,0,0,0,-1.6769,-1.6783,-1.6822,-1.6827,-1.6838,-1.6935,-1.6853,-1.6849,-1.6869,-1.6861,-1.6871,-1.6869,-1.6849,-1.6924,-1.6936,-1.6992,-1.6884,-1.7117,-1.7125,-1.7132,-1.7223,-1.724,-1.7255,0,0,0,0,0,-1.6765,-1.6849,-1.6825,-1.6836,-1.6886,-1.6939,-1.6945,-1.6919,-1.6874,-1.6913,-1.6909,-1.6869,-1.6979,-1.6933,-1.6945,-1.7003,-1.7114,-1.7123,-1.7132,-1.7216,-1.7237,-1.7254,0,0,0,0,0,0,-1.6852,-1.6849,-1.6822,-1.6909,-1.6925,-1.6926,-1.6974,-1.6942,-1.6971,-1.6962,-1.6929,-1.6932,-1.7011,-1.7014,-1.6962,-1.7103,-1.7039,-1.7051,-1.7099,-1.7118,-1.7134,-1.7132,-1.6888,0,0,0,0,0,-1.6881,-1.6924,-1.6919,-1.6996,-1.7005,-1.6989,-1.7011,-1.699,-1.7004,-1.7011,-1.7011,-1.7028,-1.7066,-1.7092,-1.7127,-1.7223,-1.7224,-1.7269,-1.7284,-1.7297,-1.7309,-1.736,-1.7381,-1.7166,-1.7166,-1.7166,0,0,-1.6942,-1.6945,-1.6975,-1.7014,-1.7023,-1.7069,-1.6995,-1.7046,-1.708,-1.7019,-1.7087,-1.7088,-1.7104,-1.7189,-1.7226,-1.7194,-1.7368,-1.7309,-1.7319,-1.7323,-1.7372,-1.7392,-1.741,-1.7172,-1.7171,-1.717,0,0,-1.7077,-1.7083,-1.7149,-1.716,-1.7175,-1.7163,-1.7179,-1.7185,-1.7183,-1.7251,-1.7206,-1.7245,-1.7312,-1.7325,-1.7341,-1.748,-1.7445,-1.7492,-1.7575,-1.7626,-1.7643,-1.7657,-1.7709,-1.7727,-1.7503,-1.7503,-1.7503,0,-1.7152,-1.7218,-1.7188,-1.7242,-1.7261,-1.7207,-1.7274,-1.7285,-1.7311,-1.7326,-1.7289,-1.7371,-1.7378,-1.7466,-1.75,-1.7513,-1.7531,-1.7492,-1.7642,-1.7657,-1.767,-1.7719,-1.7738,-1.7509,-1.7508,-1.7508,-1.7507,0,-1.731,-1.7357,-1.7408,-1.7434,-1.7458,-1.7519,-1.7498,-1.7526,-1.7502,-1.7495,-1.7565,-1.7571,-1.7606,-1.7625,-1.7602,-1.7709,-1.7689,-1.7648,-1.7583,-1.7697,-1.7742,-1.7761,-1.7517,-1.7515,-1.7513,-1.7512,0,0,-1.7503,-1.751,-1.753,-1.7541,-1.7553,-1.7589,-1.7646,-1.768,-1.7706,-1.7725,-1.7774,-1.7831,-1.7792,-1.781,-1.7788,-1.7833,-1.7944,-1.7786,-1.7786,-1.7817,-1.8064,-1.8097,-1.8119,-1.792,-1.7923,-1.7926,-1.8063,0,-1.7637,-1.7737,-1.7711,-1.781,-1.7853,-1.7802,-1.7852,-1.7865,-1.7859,-1.7895,-1.7888,-1.793,-1.7875,-1.7885,-1.7927,-1.7922,-1.7994,-1.7911,-1.7966,-1.7968,-1.7966,-1.8142,-1.8177,-1.8306,-1.8081,-1.8083,-1.8086,0,-1.7809,-1.7834,-1.7938,-1.7943,-1.796,-1.8006,-1.8035,-1.807,-1.8083,-1.8076,-1.8095,-1.8064,-1.8122,-1.8055,-1.8134,-1.8078,-1.8099,-1.81,-1.8104,-1.811,-1.8036,-1.8155,-1.8347,-1.8367,-1.8113,-1.8111,-1.8109,0,-1.7941,-1.8001,-1.8071,-1.8082,-1.8089,-1.8123,-1.8127,-1.8137,-1.8159,-1.8184,-1.8199,-1.823,-1.8248,-1.8274,-1.8252,-1.8205,-1.8335,-1.8266,-1.8332,-1.8333,-1.8364,-1.8363,-1.8564,-1.8374,-1.8373,-1.8373,-1.8372,0,-1.8096,-1.8162,-1.8131,-1.8175,-1.8247,-1.8215,-1.8288,-1.8286,-1.8296,-1.8338,-1.8294,-1.8335,-1.8303,-1.8342,-1.8325,-1.8394,-1.8402,-1.8398,-1.8393,-1.8403,-1.8404,-1.8418,-1.8409,-1.8378,-1.8377,-1.8376,-1.8375,0,-1.8257,-1.8239,-1.8312,-1.8312,-1.8314,-1.8368,-1.8368,-1.8408,-1.8398,-1.8452,-1.8463,-1.8448,-1.849,-1.8471,-1.8515,-1.8504,-1.8593,-1.8576,-1.8589,-1.8585,-1.8653,-1.8648,-1.8872,-1.8901,-1.869,-1.8692,-1.8694,0,-1.8359,-1.8408,-1.8413,-1.8439,-1.8446,-1.8487,-1.8509,-1.8479,-1.8504,-1.8523,-1.8562,-1.86,-1.863,-1.87,-1.8693,-1.8727,-1.8711,-1.8787,-1.8716,-1.8725,-1.8715,-1.8713,-1.8718,-1.8803,-1.8805,-1.8807,-1.8809,0,-1.8541,-1.8529,-1.8562,-1.8593,-1.8621,-1.8643,-1.8662,-1.8685,-1.8656,-1.8686,-1.8729,-1.8752,-1.8797,-1.8837,-1.8866,-1.8871,-1.8836,-1.8831,-1.8848,-1.886,-1.8867,-1.8866,-1.8631,-1.8826,-1.8825,-1.8823,-1.8822,-1.8822,-1.8676,-1.8718,-1.8729,-1.8767,-1.8778,-1.8797,-1.8835,-1.8829,-1.8864,-1.8899,-1.8878,-1.8929,-1.8941,-1.8977,-1.8986,-1.9025,-1.8995,-1.902,-1.9027,-1.9034,-1.9044,-1.8858,-1.903,-1.903,-1.9029,-1.9029,-1.9028,0,-1.8858,-1.8862,-1.8897,-1.8925,-1.8956,-1.8918,-1.8937,-1.8965,-1.901,-1.9024,-1.9053,-1.9103,-1.914,-1.9136,-1.917,-1.9203,-1.9187,-1.9213,-1.9211,-1.9213,-1.9068,-1.905,-1.9225,-1.9225,-1.9225,-1.9225,-1.9225,-1.9224,-1.8956,-1.9025,-1.9015,-1.9089,-1.9092,-1.9141,-1.9155,-1.9172,-1.9183,-1.924,-1.9271,-1.9267,-1.9273,-1.9308,-1.9341,-1.9338,-1.9354,-1.9386,-1.9378,-1.9243,-1.9223,-1.9205,-1.9188,-1.9389,-1.9389,-1.952,-1.9522,-1.9523]},{"header":{"parameterUnit":"m.s-1","parameterCategory":1,"la1":30.2991,"la2":30.254,"lo1":-89.0895,"lo2":-89.0444,"dy":0.0017,"dx":0.0017,"nx":28,"ny":28,"refTime":"2024-12-01T09:00:00:Z","depth":0,"parameterNumber":3,"parameterNumberName":"V-component_of_WINDS"},"data":[0,0,0,0,0,0,0,0,0,0,0,0,0,0,0,0,0,0,0,0,0,0,0,0,0,0,0,0,0,0,0,0,0,0,0,0,0,0,0,0,0,0,0,0,0,0,0,0,0,0,0,0,0,0,0,0,0,0,-1.5374,-1.5374,0,-1.5341,-1.5341,-1.534,-1.5294,-1.5293,-1.5292,-1.5292,-1.5259,-1.5259,-1.5258,0,0,0,0,0,0,0,0,0,0,0,0,0,-1.5397,-1.5397,-1.5374,-1.5374,-1.5373,-1.5341,-1.5341,-1.534,-1.5294,-1.5293,-1.5292,-1.5291,-1.5259,-1.5259,-1.5258,0,0,0,0,0,0,0,0,0,0,0,0,0,-1.5378,-1.5397,-1.5374,-1.5346,-1.5344,-1.5341,-1.5341,-1.534,-1.5294,-1.5293,-1.5292,-1.5291,-1.5259,-1.5259,-1.5258,-1.5281,0,0,-1.5258,-1.5258,0,0,0,0,0,0,0,0,-1.5379,-1.5377,-1.5351,-1.5348,-1.5345,-1.532,-1.5337,-1.532,-1.5295,-1.5313,-1.5292,-1.529,-1.528,-1.5278,-1.5275,-1.5279,-1.5278,-1.5258,-1.5258,-1.5258,-1.5258,0,0,0,0,0,0,0,-1.5381,-1.5379,-1.5361,-1.5351,-1.5347,-1.5336,-1.5332,-1.5333,-1.5304,-1.5311,-1.5308,-1.5305,-1.5278,-1.5275,-1.5274,-1.5277,-1.5258,-1.5258,-1.5257,-1.5257,-1.5297,-1.5299,0,0,0,0,0,0,-1.5386,-1.538,-1.5362,-1.536,-1.536,-1.5336,-1.5332,-1.533,-1.5304,-1.5298,-1.5306,-1.5303,-1.5276,-1.5274,-1.5272,-1.5296,-1.5258,-1.5257,-1.5257,-1.5296,-1.5298,-1.5299,0,0,0,0,0,0,-1.5387,-1.5385,-1.5363,-1.5369,-1.5365,-1.5337,-1.5335,-1.533,-1.5326,-1.5299,-1.5294,-1.5307,-1.5275,-1.5272,-1.5279,-1.5294,-1.5257,-1.5257,-1.5295,-1.5297,-1.5298,-1.5344,0,0,0,0,0,0,-1.5388,-1.5386,-1.5394,-1.537,-1.5365,-1.5371,-1.5336,-1.533,-1.5326,-1.5321,-1.53,-1.5295,-1.5274,-1.5279,-1.5278,-1.5293,-1.5257,-1.5293,-1.5296,-1.5298,-1.5341,-1.5347,-1.5352,0,0,0,0,0,-1.5389,-1.5409,-1.5395,-1.5393,-1.5375,-1.5372,-1.5369,-1.5344,-1.5327,-1.5335,-1.5318,-1.5295,-1.5293,-1.528,-1.5279,-1.5294,-1.5292,-1.5295,-1.5298,-1.5338,-1.5346,-1.5352,0,0,0,0,0,0,-1.5436,-1.5405,-1.5389,-1.5402,-1.539,-1.5364,-1.5373,-1.5353,-1.5346,-1.5342,-1.5312,-1.5307,-1.5317,-1.5306,-1.5293,-1.5313,-1.5289,-1.5292,-1.532,-1.5327,-1.5333,-1.5335,-1.5257,0,0,0,0,0,-1.5448,-1.5448,-1.542,-1.5434,-1.5429,-1.5402,-1.54,-1.5381,-1.5368,-1.5363,-1.5346,-1.5334,-1.533,-1.5328,-1.5323,-1.5339,-1.5333,-1.5349,-1.5354,-1.5359,-1.5362,-1.5368,-1.5374,-1.5308,-1.5308,-1.5308,0,0,-1.5473,-1.5455,-1.5457,-1.5443,-1.5432,-1.5432,-1.5398,-1.54,-1.54,-1.5363,-1.5367,-1.5355,-1.5339,-1.535,-1.5354,-1.5341,-1.5379,-1.5362,-1.5367,-1.5366,-1.5372,-1.5378,-1.5384,-1.531,-1.5309,-1.5309,0,0,-1.5517,-1.5505,-1.5514,-1.5503,-1.5486,-1.5468,-1.547,-1.5447,-1.5437,-1.5441,-1.5413,-1.5412,-1.5406,-1.5396,-1.539,-1.5429,-1.5408,-1.5429,-1.5458,-1.5465,-1.547,-1.5475,-1.5488,-1.5493,-1.5431,-1.5431,-1.5431,0,-1.555,-1.5549,-1.5522,-1.5525,-1.5519,-1.5485,-1.5494,-1.5485,-1.5467,-1.5464,-1.5449,-1.5441,-1.5428,-1.5435,-1.5445,-1.5441,-1.5443,-1.5431,-1.5472,-1.5476,-1.548,-1.5492,-1.5497,-1.5434,-1.5434,-1.5433,-1.5433,0,-1.559,-1.559,-1.5599,-1.5582,-1.5578,-1.5584,-1.5557,-1.5556,-1.5538,-1.5521,-1.5525,-1.5508,-1.5499,-1.5499,-1.5482,-1.5504,-1.5496,-1.5477,-1.5452,-1.5489,-1.55,-1.5505,-1.5437,-1.5437,-1.5436,-1.5435,0,0,-1.5665,-1.5631,-1.5635,-1.5626,-1.5604,-1.5603,-1.5608,-1.5598,-1.5597,-1.5586,-1.5588,-1.5584,-1.5565,-1.5559,-1.554,-1.5546,-1.5577,-1.5526,-1.5525,-1.5535,-1.5599,-1.5613,-1.5619,-1.5563,-1.5564,-1.5564,-1.56,0,-1.5705,-1.571,-1.5685,-1.5697,-1.5696,-1.5663,-1.5666,-1.5653,-1.5637,-1.5634,-1.5617,-1.5614,-1.559,-1.5586,-1.559,-1.5572,-1.5589,-1.5569,-1.5565,-1.5565,-1.5569,-1.5625,-1.564,-1.5675,-1.5604,-1.5605,-1.5606,0,-1.5752,-1.5743,-1.5754,-1.573,-1.5729,-1.5733,-1.5721,-1.5718,-1.5702,-1.569,-1.5682,-1.566,-1.5662,-1.5638,-1.564,-1.5627,-1.5624,-1.5615,-1.5615,-1.5614,-1.5588,-1.5625,-1.5686,-1.5691,-1.5612,-1.5612,-1.5611,0,-1.5805,-1.5795,-1.58,-1.5794,-1.5766,-1.5769,-1.5758,-1.5741,-1.5736,-1.5726,-1.5722,-1.5713,-1.5708,-1.5701,-1.5676,-1.5661,-1.5681,-1.5655,-1.5671,-1.5671,-1.5677,-1.5677,-1.5737,-1.5675,-1.5675,-1.5675,-1.5675,0,-1.5852,-1.586,-1.5823,-1.5826,-1.5834,-1.5805,-1.5814,-1.5799,-1.5784,-1.5783,-1.5755,-1.5755,-1.5723,-1.5719,-1.57,-1.5704,-1.5703,-1.5693,-1.5687,-1.5695,-1.5696,-1.5692,-1.5689,-1.5676,-1.5676,-1.5676,-1.5675,0,-1.5912,-1.5887,-1.5891,-1.5864,-1.5857,-1.5865,-1.5841,-1.5843,-1.5825,-1.5825,-1.5823,-1.5795,-1.579,-1.5765,-1.5753,-1.574,-1.5751,-1.5741,-1.5756,-1.5753,-1.577,-1.5768,-1.583,-1.5836,-1.577,-1.5771,-1.5772,0,-1.5944,-1.5949,-1.5923,-1.592,-1.591,-1.5906,-1.5901,-1.5872,-1.5868,-1.5849,-1.5853,-1.5845,-1.5837,-1.5829,-1.5808,-1.5799,-1.5788,-1.581,-1.5786,-1.5793,-1.5787,-1.5787,-1.5787,-1.5815,-1.5816,-1.5817,-1.5817,0,-1.6003,-1.599,-1.5983,-1.5972,-1.5966,-1.5956,-1.5945,-1.5944,-1.5912,-1.5908,-1.5902,-1.5896,-1.5883,-1.5875,-1.5862,-1.585,-1.5828,-1.5825,-1.5828,-1.5836,-1.5844,-1.5839,-1.577,-1.5824,-1.5823,-1.5823,-1.5822,-1.5822,-1.6049,-1.6052,-1.6033,-1.6026,-1.6014,-1.6004,-1.6004,-1.5985,-1.5979,-1.5967,-1.595,-1.5945,-1.5928,-1.5908,-1.5898,-1.5894,-1.5881,-1.5886,-1.5887,-1.5889,-1.5892,-1.5845,-1.5891,-1.5891,-1.5891,-1.5891,-1.589,0,-1.6106,-1.6092,-1.6086,-1.607,-1.6064,-1.6044,-1.6029,-1.6026,-1.6022,-1.6008,-1.6,-1.5992,-1.5984,-1.5961,-1.5951,-1.5952,-1.5941,-1.595,-1.5949,-1.5947,-1.5904,-1.5902,-1.5958,-1.5958,-1.5958,-1.5958,-1.5958,-1.5958,-1.6134,-1.6138,-1.6123,-1.612,-1.6105,-1.61,-1.6094,-1.6084,-1.6072,-1.6064,-1.6057,-1.6042,-1.6024,-1.6012,-1.6003,-1.5996,-1.5994,-1.6006,-1.5996,-1.5956,-1.595,-1.5944,-1.5942,-1.6005,-1.6005,-1.6039,-1.6039,-1.6039]}]]